This demonstration page uses our WeatherBlox Daily Observations layout. Learn more.

38.89511, -77.03637

Hourly Observations for February 23, 2021

Temp ( °F °C ) Dew Point ( °F °C ) Humidity (%) Winds ( mph kmh ) Pressure ( in mb ) Visibility ( mi km ) Precip ( " mm )
12:52 am 00:52 Mostly Clear with Mist and Fog 32 0 31 -0.6 96 96 S 7 11 29.87 1012 6 9.65604 0 0
1:52 am 01:52 Cloudy with Mist and Fog 34 1.1 32 0 92 92 Calm 29.86 1011 6 9.65604 0 0
2:52 am 02:52 Partly Cloudy with Mist and Fog 33 0.6 32 0 96 96 SSW 5 7 29.85 1011 5 8.0467 0 0
3:19 am 03:19 Mostly Clear with Mist and Fog 32 0 31 -0.6 96 96 S 8 13 29.85 1011 2 3.21868 0 0
3:21 am 03:21 Mostly Cloudy with Mist and Fog 32 0 30 -1.1 92 92 S 7 11 29.85 1011 1 1.60934 0 0
3:28 am 03:28 Mostly Cloudy with Freezing Fog 32 0 31 -0.6 96 96 S 6 9 29.84 1011 0.5 0.80467 0 0
3:49 am 03:49 Mostly Cloudy with Mist and Fog 34 1 32 0 93 93 S 7 11 29.84 1011 0.75 1.207005 0 0
3:52 am 03:52 Mostly Cloudy with Mist and Fog 33 0.6 32 0 96 96 S 7 11 29.84 1010 1 1.60934 0 0
4:01 am 04:01 Mostly Cloudy with Mist and Fog 32 0 32 0 100 100 S 5 7 29.84 1011 3 4.82802 0 0
4:08 am 04:08 Partly Cloudy with Mist and Fog 30 -1.1 30 -1.1 100 100 S 5 7 29.84 1011 2.5 4.02335 0 0
4:23 am 04:23 Clear with Mist and Fog 31 -0.6 30 -1.1 96 96 SSW 6 9 29.84 1011 4 6.43736 0 0
4:29 am 04:29 Partly Cloudy 30 -1.1 29 -1.7 96 96 SSW 6 9 29.84 1011 8 12.87472 0 0
4:52 am 04:52 Partly Cloudy with Mist and Fog 31 -0.6 30 -1.1 96 96 SSW 5 7 29.84 1011 4 6.43736 0 0
5:01 am 05:01 Partly Cloudy with Mist and Fog 31 -0.6 30 -1.1 96 96 SSW 5 7 29.84 1011 4 6.43736 0 0
5:24 am 05:24 Partly Cloudy with Mist and Fog 31 -0.6 30 -1.1 96 96 SSW 8 13 29.84 1011 1.5 2.41401 0 0
5:28 am 05:28 Mostly Cloudy with Mist and Fog 31 -0.6 30 -1.1 96 96 S 8 13 29.84 1011 0.75 1.207005 0 0
5:47 am 05:47 Cloudy with Mist and Fog 30 -1 30 -1 100 100 S 8 13 29.84 1011 2 3.21868 0 0
5:52 am 05:52 Cloudy with Mist and Fog 31 -0.6 30 -1.1 96 96 S 8 13 29.83 1010 1.5 2.41401 0 0
6:03 am 06:03 Mostly Cloudy with Mist and Fog 31 -0.6 30 -1.1 96 96 S 8 13 29.84 1011 0.75 1.207005 0 0
6:23 am 06:23 Partly Cloudy with Mist and Fog 31 -0.6 30 -1.1 96 96 SSW 8 13 29.84 1011 1.5 2.41401 0 0
6:38 am 06:38 Partly Cloudy with Mist and Fog 31 -0.6 30 -1.1 96 96 S 9 15 29.84 1011 3 4.82802 0 0
6:52 am 06:52 Mostly Cloudy with Mist and Fog 31 -0.6 30 -1.1 96 96 S 9 15 29.84 1010 3 4.82802 0 0
7:03 am 07:03 Mostly Cloudy with Mist and Fog 31 -0.6 31 -0.6 100 100 S 7 11 29.83 1010 5 8.0467 0 0
7:52 am 07:52 Mostly Cloudy 33 0.6 32 0 96 96 S 5 7 29.81 1009 10 16.0934 0 0
8:52 am 08:52 Mostly Cloudy 34 1.1 33 0.6 97 97 S 8 13 29.79 1009 10 16.0934 0 0
9:52 am 09:52 Partly Cloudy 41 5 35 1.7 79 79 S 10 17 29.76 1008 10 16.0934 0 0
10:52 am 10:52 Partly Cloudy 49 9.4 34 1.1 56 56 SSW 14 22 29.75 1007 10 16.0934 0 0
11:52 am 11:52 Mostly Cloudy 51 10.6 33 0.6 50 50 SSW 15 24 29.73 1007 10 16.0934 0 0
12:52 pm 12:52 Mostly Cloudy 55 12.8 32 0 42 42 WSW 17 28 29.72 1006 10 16.0934 0 0
1:52 pm 13:52 Partly Cloudy 57 13.9 35 1.7 44 44 W 16 26 29.71 1006 10 16.0934 0 0
2:52 pm 14:52 Mostly Cloudy 59 15 35 1.7 41 41 WNW 21 33 29.72 1006 10 16.0934 0 0
3:52 pm 15:52 Partly Cloudy 58 14.4 33 0.6 39 39 WNW 22 35 29.75 1007 10 16.0934 0 0
4:52 pm 16:52 Mostly Cloudy 57 13.9 32 0 39 39 NW 16 26 29.79 1009 10 16.0934 0 0
5:52 pm 17:52 Mostly Sunny 54 12.2 30 -1.1 40 40 WNW 13 20 29.82 1010 10 16.0934 0 0
6:52 pm 18:52 Mostly Clear 52 11.1 29 -1.7 41 41 WNW 7 11 29.88 1012 10 16.0934 0 0
7:52 pm 19:52 Mostly Clear 50 10 29 -1.7 44 44 W 7 11 29.91 1013 10 16.0934 0 0
8:52 pm 20:52 Mostly Clear 48 8.9 30 -1.1 50 50 WSW 3 6 29.94 1014 10 16.0934 0 0
9:52 pm 21:52 Mostly Clear 41 5 33 0.6 73 73 SSW 6 9 29.98 1015 10 16.0934 0 0
10:52 pm 22:52 Mostly Clear 43 6.1 31 -0.6 63 63 W 6 9 30.01 1016 10 16.0934 0 0
11:52 pm 23:52 Clear 42 5.6 32 0 68 68 Calm 30.01 1016 10 16.0934 0 0

Powered by AerisWeather